• In Belarus
  • List of Countries
  • For 7 days
  • Water Temperature
  • Weather Map
  • Weather Widgets
  • user-avatar
    Login

    Hourly Weather Trojanowka

    Today, 5 June, Friday

    Time Temperature Precipitation Wind Pressure Humidity
    00:00 +14°C° 0.2 mm 3 mps 730 mmHg 90%
    01:00 +15°C° 0 mm 2 mps 730 mmHg 94%
    02:00 +14°C° 0.9 mm 3 mps 730 mmHg 95%
    03:00 +14°C° 0.9 mm 3 mps 729 mmHg 96%
    04:00 +14°C° 0.9 mm 3 mps 729 mmHg 97%
    05:00 +13°C° 0.6 mm 3 mps 730 mmHg 96%
    06:00 +13°C° 0.6 mm 3 mps 730 mmHg 95%
    07:00 +13°C° 0 mm 3 mps 731 mmHg 96%
    08:00 +13°C° 0.2 mm 3 mps 731 mmHg 92%
    09:00 +14°C° 0.2 mm 4 mps 732 mmHg 88%
    10:00 +14°C° 0.2 mm 4 mps 732 mmHg 84%
    11:00 +15°C° 0.2 mm 4 mps 732 mmHg 77%
    12:00 +17°C° 0.2 mm 4 mps 733 mmHg 71%
    13:00 +18°C° 0.2 mm 4 mps 733 mmHg 65%
    14:00 +18°C° 0.4 mm 4 mps 733 mmHg 63%
    15:00 +18°C° 0.4 mm 3 mps 733 mmHg 61%
    16:00 +19°C° 0.4 mm 3 mps 733 mmHg 59%
    17:00 +17°C° 0.3 mm 3 mps 733 mmHg 65%
    18:00 +16°C° 0.3 mm 3 mps 733 mmHg 71%
    19:00 +14°C° 0.3 mm 3 mps 732 mmHg 77%
    20:00 +13°C° 0.1 mm 3 mps 733 mmHg 80%
    21:00 +12°C° 0.1 mm 4 mps 733 mmHg 82%
    22:00 +12°C° 0.1 mm 4 mps 733 mmHg 85%
    23:00 +11°C° 0.1 mm 4 mps 733 mmHg 85%

    Tomorrow, 6 June, Saturday

    Time Temperature Precipitation Wind Pressure Humidity
    00:00 +10°C° 0.1 mm 5 mps 734 mmHg 86%
    01:00 +9°C° 0.1 mm 5 mps 734 mmHg 86%
    02:00 +10°C° 0 mm 4 mps 735 mmHg 86%
    03:00 +8°C° 0 mm 4 mps 736 mmHg 86%
    04:00 +7°C° 0 mm 4 mps 736 mmHg 86%
    05:00 +10°C° 0 mm 4 mps 737 mmHg 79%
    06:00 +10°C° 0 mm 5 mps 737 mmHg 72%
    07:00 +11°C° 0 mm 6 mps 738 mmHg 66%
    08:00 +14°C° 0 mm 6 mps 738 mmHg 58%
    09:00 +15°C° 0 mm 6 mps 739 mmHg 51%
    10:00 +17°C° 0 mm 6 mps 739 mmHg 43%
    11:00 +16°C° 0 mm 6 mps 739 mmHg 51%
    12:00 +15°C° 0 mm 6 mps 739 mmHg 60%
    13:00 +14°C° 0 mm 6 mps 739 mmHg 68%
    14:00 +15°C° 0 mm 6 mps 739 mmHg 67%
    15:00 +16°C° 0 mm 5 mps 739 mmHg 65%
    16:00 +16°C° 0 mm 5 mps 739 mmHg 64%
    17:00 +17°C° 0.2 mm 4 mps 739 mmHg 69%
    18:00 +15°C° 0.2 mm 4 mps 739 mmHg 74%
    19:00 +15°C° 0.2 mm 4 mps 739 mmHg 78%
    20:00 +14°C° 0.2 mm 3 mps 740 mmHg 84%
    21:00 +14°C° 0.2 mm 2 mps 740 mmHg 89%
    22:00 +13°C° 0.2 mm 2 mps 741 mmHg 94%
    23:00 +13°C° 0 mm 2 mps 740 mmHg 94%

    Day after tomorrow, 7 June, Sunday

    Time Temperature Precipitation Wind Pressure Humidity
    00:00 +13°C° 0 mm 1 mps 740 mmHg 94%
    01:00 +13°C° 0 mm 1 mps 740 mmHg 95%
    02:00 +13°C° 0 mm 1 mps 740 mmHg 94%
    03:00 +13°C° 0 mm 1 mps 740 mmHg 94%
    04:00 +13°C° 0 mm 1 mps 740 mmHg 94%
    05:00 +14°C° 0 mm 1 mps 740 mmHg 89%
    06:00 +15°C° 0 mm 1 mps 741 mmHg 85%
    07:00 +16°C° 0 mm 1 mps 741 mmHg 80%
    08:00 +15°C° 0.2 mm 0 mps 741 mmHg 78%
    09:00 +16°C° 0.2 mm 0 mps 741 mmHg 77%
    10:00 +16°C° 0.2 mm 0 mps 742 mmHg 75%
    11:00 +19°C° 0.1 mm 1 mps 742 mmHg 74%
    12:00 +18°C° 0.1 mm 2 mps 742 mmHg 72%
    13:00 +19°C° 0.1 mm 2 mps 742 mmHg 71%
    14:00 +19°C° 0.1 mm 2 mps 742 mmHg 70%
    15:00 +19°C° 0.1 mm 2 mps 742 mmHg 69%
    16:00 +19°C° 0.1 mm 2 mps 742 mmHg 68%
    17:00 +20°C° 0.1 mm 1 mps 742 mmHg 72%
    18:00 +19°C° 0.1 mm 1 mps 742 mmHg 75%
    19:00 +18°C° 0.1 mm 1 mps 742 mmHg 79%
    20:00 +18°C° 0.1 mm 1 mps 743 mmHg 82%
    21:00 +16°C° 0.1 mm 1 mps 743 mmHg 85%
    22:00 +14°C° 0.1 mm 0 mps 743 mmHg 87%
    23:00 +14°C° 0 mm 0 mps 743 mmHg 87%

    8 June, Monday

    Time Temperature Precipitation Wind Pressure Humidity
    00:00 +15°C° 0 mm 1 mps 744 mmHg 86%
    01:00 +15°C° 0 mm 1 mps 744 mmHg 85%
    02:00 +14°C° 0 mm 1 mps 743 mmHg 85%
    03:00 +14°C° 0 mm 1 mps 743 mmHg 84%
    04:00 +14°C° 0 mm 2 mps 743 mmHg 84%
    05:00 +14°C° 0.8 mm 2 mps 743 mmHg 87%
    06:00 +12°C° 0.8 mm 3 mps 743 mmHg 90%
    07:00 +12°C° 0.8 mm 3 mps 743 mmHg 93%
    08:00 +12°C° 1.9 mm 4 mps 744 mmHg 94%
    09:00 +12°C° 1.9 mm 4 mps 744 mmHg 95%
    10:00 +12°C° 1.9 mm 4 mps 744 mmHg 95%
    11:00 +12°C° 1.9 mm 4 mps 744 mmHg 95%
    12:00 +12°C° 1.9 mm 5 mps 744 mmHg 95%
    13:00 +10°C° 1.9 mm 5 mps 744 mmHg 95%
    14:00 +11°C° 1.1 mm 4 mps 744 mmHg 95%
    15:00 +11°C° 1.1 mm 4 mps 744 mmHg 95%
    16:00 +11°C° 1.1 mm 3 mps 744 mmHg 96%
    17:00 +11°C° 0.3 mm 3 mps 745 mmHg 96%
    18:00 +12°C° 0.3 mm 2 mps 745 mmHg 96%
    19:00 +13°C° 0.3 mm 1 mps 745 mmHg 97%
    20:00 +12°C° 0 mm 1 mps 745 mmHg 97%
    21:00 +12°C° 0 mm 1 mps 746 mmHg 97%
    22:00 +12°C° 0 mm 2 mps 746 mmHg 97%
    23:00 +12°C° 0 mm 2 mps 746 mmHg 97%

    9 June, Tuesday

    Time Temperature Precipitation Wind Pressure Humidity
    00:00 +12°C° 0 mm 1 mps 746 mmHg 97%
    01:00 +12°C° 0 mm 1 mps 746 mmHg 97%
    02:00 +11°C° 0 mm 1 mps 746 mmHg 98%
    03:00 +11°C° 0 mm 1 mps 746 mmHg 98%
    04:00 +10°C° 0 mm 1 mps 746 mmHg 98%
    05:00 +12°C° 0 mm 1 mps 747 mmHg 94%
    06:00 +13°C° 0 mm 2 mps 747 mmHg 90%
    07:00 +14°C° 0 mm 2 mps 747 mmHg 86%
    08:00 +16°C° 0 mm 2 mps 748 mmHg 77%
    09:00 +17°C° 0 mm 2 mps 748 mmHg 67%
    10:00 +19°C° 0 mm 2 mps 748 mmHg 57%
    11:00 +20°C° 0 mm 2 mps 748 mmHg 54%
    12:00 +21°C° 0 mm 2 mps 748 mmHg 51%
    13:00 +21°C° 0 mm 2 mps 748 mmHg 48%
    14:00 +21°C° 0 mm 2 mps 747 mmHg 50%
    15:00 +21°C° 0 mm 2 mps 747 mmHg 51%
    16:00 +21°C° 0 mm 2 mps 747 mmHg 53%
    17:00 +20°C° 0 mm 2 mps 747 mmHg 59%
    18:00 +19°C° 0 mm 2 mps 747 mmHg 66%
    19:00 +18°C° 0 mm 2 mps 747 mmHg 73%
    20:00 +18°C° 0 mm 1 mps 748 mmHg 75%
    21:00 +18°C° 0 mm 1 mps 748 mmHg 78%
    22:00 +16°C° 0 mm 1 mps 748 mmHg 81%
    23:00 +15°C° 0 mm 1 mps 748 mmHg 85%

    10 June, Wednesday

    Time Temperature Precipitation Wind Pressure Humidity
    00:00 +14°C° 0 mm 2 mps 748 mmHg 89%
    01:00 +13°C° 0 mm 2 mps 748 mmHg 93%
    02:00 +13°C° 0 mm 2 mps 748 mmHg 94%
    03:00 +12°C° 0 mm 2 mps 748 mmHg 95%
    04:00 +12°C° 0 mm 2 mps 748 mmHg 96%
    05:00 +13°C° 0 mm 2 mps 748 mmHg 91%
    06:00 +14°C° 0 mm 2 mps 749 mmHg 85%
    07:00 +14°C° 0 mm 3 mps 749 mmHg 80%
    08:00 +17°C° 0 mm 3 mps 749 mmHg 72%
    09:00 +18°C° 0 mm 3 mps 749 mmHg 63%
    10:00 +20°C° 0 mm 4 mps 749 mmHg 55%
    11:00 +20°C° 0 mm 4 mps 749 mmHg 54%
    12:00 +20°C° 0 mm 4 mps 748 mmHg 54%
    13:00 +21°C° 0 mm 4 mps 748 mmHg 54%
    14:00 +21°C° 0 mm 4 mps 748 mmHg 56%
    15:00 +21°C° 0 mm 3 mps 748 mmHg 58%
    16:00 +20°C° 0 mm 3 mps 748 mmHg 61%
    17:00 +20°C° 0 mm 3 mps 748 mmHg 63%
    18:00 +19°C° 0 mm 3 mps 748 mmHg 66%
    19:00 +18°C° 0 mm 3 mps 748 mmHg 68%
    20:00 +17°C° 0 mm 4 mps 748 mmHg 70%
    21:00 +15°C° 0 mm 4 mps 749 mmHg 71%
    22:00 +15°C° 0 mm 4 mps 749 mmHg 72%
    23:00 +14°C° 0 mm 4 mps 749 mmHg 73%
    Show more